{"data":{"norad_id":65155,"epoch":"2026-05-23T12:56:47.633280Z","epoch_age_seconds":195047,"freshness":"STALE","line1":"1 65155U 25171Z   26143.53944020  .00040682  00000+0  53720-2 0  9999","line2":"2 65155  51.9002 192.2951 0001280 103.5757 256.5348 14.79627262 43892","mean_motion":14.79627262,"eccentricity":0.000128,"inclination_deg":51.9002,"raan_deg":192.2951,"arg_perigee_deg":103.5757,"mean_anomaly_deg":256.5348,"bstar":0.005372,"rev_number":4389,"period_min":97.32180779459,"perigee_km":629.60382880986,"apogee_km":631.39804012108,"semimajor_km":7008.6379344655,"source":"CELESTRAK","updated_at":"2026-05-25T13:38:05.171837Z"}}